Lincoln County, Oregon, United States
Lat: 44.65N, Lon: 123.85W
Wx Zone: ORZ004
Local Info
Past Weather Observations for Tuesday, December 16, 2014

NOTE: This archive is for the closest National Weather Service station to Lincoln County. Information may differ from the station used for current weather conditions.

Click here for Long-term Archive

Time Weather Temperature Dewpoint Humidity Pressure Winds Precip Visibility
23:55
Partly Cloudy
46°F / 8°C 41°F / 5°C 82% 29.77 in
(1008 mb)
E 16.1 mph
(E 26 kph)
- 10SM
23:35
Partly Cloudy
45°F / 7°C 43°F / 6°C 93% 29.77 in
(1008 mb)
E 16.1 mph
(E 26 kph)
- 10SM
23:15
Partly Cloudy
45°F / 7°C 43°F / 6°C 93% 29.77 in
(1008 mb)
E 16.1 mph
(E 26 kph)
- 10SM
22:55
Partly Cloudy
45°F / 7°C 43°F / 6°C 93% 29.77 in
(1008 mb)
ENE 17.3 mph
(ENE 28 kph)
- 10SM
22:35
Partly Cloudy
45°F / 7°C 43°F / 6°C 93% 29.77 in
(1008 mb)
E 18.4 mph
(E 30 kph)
- 10SM
22:15
Clear
45°F / 7°C 43°F / 6°C 93% 29.77 in
(1008 mb)
E 15 mph
(E 24 kph)
- 10SM
21:55
Partly Cloudy
45°F / 7°C 43°F / 6°C 93% 29.77 in
(1008 mb)
E 17.3 mph
(E 28 kph)
0.01 in
(0.25 mm)
10SM
21:35
Overcast
Light Rain
45°F / 7°C 43°F / 6°C 93% 29.77 in
(1008 mb)
E 12.7 mph
(E 20 kph)
0.01 in
(0.25 mm)
10SM
21:15
Overcast
Light Rain
46°F / 8°C 43°F / 6°C 87% 29.8 in
(1009 mb)
E 12.7 mph
(E 20 kph)
- 10SM
20:55
Overcast
Light Rain
46°F / 8°C 43°F / 6°C 87% 29.8 in
(1009 mb)
E 15 mph
(E 24 kph)
0.02 in
(0.51 mm)
10SM
20:35
Overcast
Light Rain
46°F / 8°C 43°F / 6°C 87% 29.77 in
(1008 mb)
E 16.1 mph
(E 26 kph)
0.01 in
(0.25 mm)
10SM
20:15
Overcast
Light Rain
46°F / 8°C 43°F / 6°C 87% 29.77 in
(1008 mb)
ENE 13.8 mph
(ENE 22 kph)
- 10SM
19:55
Overcast
Light Rain
46°F / 8°C 43°F / 6°C 87% 29.77 in
(1008 mb)
ENE 15 mph
(ENE 24 kph)
- 10SM
19:35
Overcast
Drizzle
46°F / 8°C 43°F / 6°C 87% 29.77 in
(1008 mb)
E 11.5 mph
(E 19 kph)
- 10SM
19:15
Mostly Cloudy
Drizzle
46°F / 8°C 43°F / 6°C 87% 29.77 in
(1008 mb)
ENE 12.7 mph
(ENE 20 kph)
- 10SM
18:55
Mostly Cloudy
Drizzle
48°F / 9°C 43°F / 6°C 82% 29.77 in
(1008 mb)
ENE 15 mph
(ENE 24 kph)
- 10SM
18:35
Partly Cloudy
Drizzle
48°F / 9°C 43°F / 6°C 82% 29.77 in
(1008 mb)
E 13.8 mph
(E 22 kph)
- 10SM
18:15
Clear
48°F / 9°C 43°F / 6°C 82% 29.77 in
(1008 mb)
E 15 mph
(E 24 kph)
- 10SM
17:55
Clear
48°F / 9°C 43°F / 6°C 82% 29.77 in
(1008 mb)
E 11.5 mph
(E 19 kph)
- 10SM
17:35
Clear
50°F / 10°C 43°F / 6°C 76% 29.77 in
(1008 mb)
E 12.7 mph
(E 20 kph)
- 10SM
17:15
Clear
48°F / 9°C 43°F / 6°C 82% 29.77 in
(1008 mb)
E 9.2 mph
(E 15 kph)
- 10SM
16:55
Partly Cloudy
Drizzle
50°F / 10°C 43°F / 6°C 76% 29.77 in
(1008 mb)
ENE 9.2 mph
(ENE 15 kph)
- 10SM
16:35
Partly Cloudy
Light Rain
50°F / 10°C 43°F / 6°C 76% 29.77 in
(1008 mb)
ENE 11.5 mph
(ENE 19 kph)
- 10SM
16:15
Mostly Cloudy
50°F / 10°C 43°F / 6°C 76% 29.77 in
(1008 mb)
E 12.7 mph
(E 20 kph)
- 10SM
15:55
Partly Cloudy
50°F / 10°C 45°F / 7°C 82% 29.74 in
(1007 mb)
E 13.8 mph
(E 22 kph)
- 10SM
15:35
Clear
50°F / 10°C 45°F / 7°C 82% 29.74 in
(1007 mb)
E 12.7 mph
(E 20 kph)
- 10SM
15:15
Clear
52°F / 11°C 45°F / 7°C 77% 29.74 in
(1007 mb)
E 13.8 mph
(E 22 kph)
- 10SM
14:55
Clear
52°F / 11°C 45°F / 7°C 77% 29.74 in
(1007 mb)
E 12.7 mph
(E 20 kph)
- 10SM
14:35
Clear
52°F / 11°C 45°F / 7°C 77% 29.74 in
(1007 mb)
E 11.5 mph
(E 19 kph)
- 10SM
14:15
Clear
52°F / 11°C 45°F / 7°C 77% 29.77 in
(1008 mb)
E 9.2 mph
(E 15 kph)
- 10SM
13:55
Clear
52°F / 11°C 45°F / 7°C 77% 29.77 in
(1008 mb)
ENE 9.2 mph
(ENE 15 kph)
- 10SM
13:35
Partly Cloudy
52°F / 11°C 45°F / 7°C 77% 29.77 in
(1008 mb)
E 8.1 mph
(E 13 kph)
- 10SM
13:15
Partly Cloudy
52°F / 11°C 45°F / 7°C 77% 29.77 in
(1008 mb)
E 9.2 mph
(E 15 kph)
- 10SM
12:55
Partly Cloudy
52°F / 11°C 45°F / 7°C 77% 29.77 in
(1008 mb)
E 8.1 mph
(E 13 kph)
- 10SM
12:35
Partly Cloudy
52°F / 11°C 46°F / 8°C 82% 29.77 in
(1008 mb)
E 6.9 mph
(E 11 kph)
- 10SM
12:15
Partly Cloudy
52°F / 11°C 45°F / 7°C 77% 29.8 in
(1009 mb)
E 5.8 mph
(E 9 kph)
- 10SM
11:55
Partly Cloudy
52°F / 11°C 46°F / 8°C 82% 29.8 in
(1009 mb)
E 6.9 mph
(E 11 kph)
- 10SM
11:35
Partly Cloudy
54°F / 12°C 46°F / 8°C 77% 29.8 in
(1009 mb)
E 5.8 mph
(E 9 kph)
- 10SM
11:15
Clear
52°F / 11°C 46°F / 8°C 82% 29.8 in
(1009 mb)
E 6.9 mph
(E 11 kph)
- 10SM
10:55
Clear
52°F / 11°C 46°F / 8°C 82% 29.8 in
(1009 mb)
E 8.1 mph
(E 13 kph)
- 10SM
10:35
Clear
52°F / 11°C 45°F / 7°C 77% 29.8 in
(1009 mb)
E 6.9 mph
(E 11 kph)
- 10SM
10:15
Partly Cloudy
50°F / 10°C 45°F / 7°C 82% 29.83 in
(1010 mb)
E 6.9 mph
(E 11 kph)
- 10SM
09:55
Partly Cloudy
48°F / 9°C 45°F / 7°C 87% 29.8 in
(1009 mb)
E 8.1 mph
(E 13 kph)
- 10SM
09:35
Partly Cloudy
46°F / 8°C 45°F / 7°C 93% 29.8 in
(1009 mb)
E 9.2 mph
(E 15 kph)
- 10SM
09:15
Clear
46°F / 8°C 43°F / 6°C 87% 29.8 in
(1009 mb)
E 6.9 mph
(E 11 kph)
- 10SM
08:55
Clear
45°F / 7°C 43°F / 6°C 93% 29.8 in
(1009 mb)
E 6.9 mph
(E 11 kph)
- 10SM
08:35
Clear
45°F / 7°C 43°F / 6°C 93% 29.8 in
(1009 mb)
E 6.9 mph
(E 11 kph)
- 10SM
08:15
Clear
45°F / 7°C 43°F / 6°C 93% 29.8 in
(1009 mb)
E 6.9 mph
(E 11 kph)
- 10SM
07:55
Clear
45°F / 7°C 43°F / 6°C 93% 29.8 in
(1009 mb)
E 6.9 mph
(E 11 kph)
- 10SM
07:35
Clear
45°F / 7°C 43°F / 6°C 93% 29.8 in
(1009 mb)
E 6.9 mph
(E 11 kph)
- 10SM
07:15
Partly Cloudy
45°F / 7°C 43°F / 6°C 93% 29.8 in
(1009 mb)
E 6.9 mph
(E 11 kph)
- 10SM
06:55
Partly Cloudy
45°F / 7°C 43°F / 6°C 93% 29.8 in
(1009 mb)
ESE 6.9 mph
(ESE 11 kph)
- 10SM
06:35
Partly Cloudy
45°F / 7°C 43°F / 6°C 93% 29.8 in
(1009 mb)
E 6.9 mph
(E 11 kph)
- 10SM
06:15
Partly Cloudy
46°F / 8°C 43°F / 6°C 87% 29.8 in
(1009 mb)
ESE 5.8 mph
(ESE 9 kph)
- 10SM
05:55
Mostly Cloudy
46°F / 8°C 45°F / 7°C 93% 29.8 in
(1009 mb)
SE 4.6 mph
(SE 7 kph)
- 10SM
05:35
Partly Cloudy
46°F / 8°C 45°F / 7°C 93% 29.8 in
(1009 mb)
SE 5.8 mph
(SE 9 kph)
- 10SM
05:15
Mostly Cloudy
46°F / 8°C 45°F / 7°C 93% 29.8 in
(1009 mb)
E 6.9 mph
(E 11 kph)
- 10SM
04:55
Mostly Cloudy
46°F / 8°C 45°F / 7°C 93% 29.8 in
(1009 mb)
ESE 6.9 mph
(ESE 11 kph)
0.04 in
(1.02 mm)
10SM
04:35
Mostly Cloudy
Light Rain
46°F / 8°C 45°F / 7°C 93% 29.8 in
(1009 mb)
SE 8.1 mph
(SE 13 kph)
0.03 in
(0.76 mm)
10SM
04:15
Mostly Cloudy
Light Rain
46°F / 8°C 45°F / 7°C 93% 29.8 in
(1009 mb)
SE 6.9 mph
(SE 11 kph)
0.02 in
(0.51 mm)
10SM
03:55
Overcast
Rain
46°F / 8°C 45°F / 7°C 93% 29.8 in
(1009 mb)
SE 4.6 mph
(SE 7 kph)
0.04 in
(1.02 mm)
10SM
03:35
Overcast
Light Rain
46°F / 8°C 45°F / 7°C 93% 29.8 in
(1009 mb)
ESE 4.6 mph
(ESE 7 kph)
0.02 in
(0.51 mm)
10SM
03:15
Overcast
Light Rain
46°F / 8°C 45°F / 7°C 93% 29.8 in
(1009 mb)
E 5.8 mph
(E 9 kph)
0.01 in
(0.25 mm)
10SM
02:55
Overcast
Drizzle
46°F / 8°C 45°F / 7°C 93% 29.8 in
(1009 mb)
E 5.8 mph
(E 9 kph)
- 10SM
02:35
Mostly Cloudy
Light Rain
46°F / 8°C 43°F / 6°C 87% 29.8 in
(1009 mb)
E 6.9 mph
(E 11 kph)
- 10SM
02:15
Overcast
45°F / 7°C 43°F / 6°C 93% 29.8 in
(1009 mb)
E 5.8 mph
(E 9 kph)
- 10SM
01:55
Overcast
45°F / 7°C 43°F / 6°C 93% 29.77 in
(1008 mb)
E 8.1 mph
(E 13 kph)
- 10SM
01:35
Mostly Cloudy
Drizzle
45°F / 7°C 43°F / 6°C 93% 29.77 in
(1008 mb)
E 9.2 mph
(E 15 kph)
- 10SM
01:15
Mostly Cloudy
Rain
45°F / 7°C 43°F / 6°C 93% 29.77 in
(1008 mb)
E 8.1 mph
(E 13 kph)
- 10SM
00:55
Overcast
Light Rain
45°F / 7°C 43°F / 6°C 93% 29.77 in
(1008 mb)
E 8.1 mph
(E 13 kph)
- 10SM
00:35
Overcast
45°F / 7°C 43°F / 6°C 93% 29.77 in
(1008 mb)
E 9.2 mph
(E 15 kph)
- 10SM
00:15
Mostly Cloudy
45°F / 7°C 43°F / 6°C 93% 29.8 in
(1009 mb)
E 6.9 mph
(E 11 kph)
- 10SM
Time Weather Temperature Dewpoint Humidity Pressure Winds Precip Visibility


Weather for websites

WeatherForYou.com, LLC is not responsible for any damages or problems caused by this service. Current weather conditions are obtained from the closest station including government and personal stations which may have varying degrees of accuracy. Weather forecasts are derived from the NOAA NDFD. Like all things, this site belongs to Jesus Christ... He just trusts me to maintain it. If you have any questions or comments email webmaster@weatherforyou.com

Copyright © 2014, WeatherForYou.com LLC. All rights reserved.